Weather History for Greenville/Spartanburg, SC

Change the Weather History Date:

Saturday, June 15, 2013

  Actual Average Record
Temperature  
Mean Temperature 72 °F 77 °F  
Max Temperature 84 °F 88 °F 97 °F (1981)
Min Temperature 60 °F 66 °F 49 °F (1903)
Degree Days  
Heating Degree Days 0 0  
Month to date heating degree days 0 0  
Since 1 June heating degree days 0 0  
Since 1 July heating degree days 2966 3044  
Cooling Degree Days 7 12  
Month to date cooling degree days 158 153  
Year to date cooling degree days 320 354  
Since 1 June cooling degree days 158 153  
Growing Degree Days 22 (Base 50)    
Moisture  
Dew Point 58 °F    
Average Humidity 67    
Maximum Humidity 90    
Minimum Humidity 43    
Precipitation  
Precipitation 0.00 in 0.13 in 1.69 in (1965)
Month to date precipitation 6.48 1.90  
Year to date precipitation 29.64 21.33  
Snow  
Snow 0.00 in 0.00 in T in (2011)
Month to date snowfall 0.0 0.0  
Since 1 June snowfall 0.0 0.0  
Since 1 July snowfall 2.0 4.7  
Snow Depth 0.00 in    
Sea Level Pressure  
Sea Level Pressure 30.07 in    
Wind  
Wind Speed 4 mph (SSW)    
Max Wind Speed 13 mph    
Max Gust Speed 17 mph    
Visibility 10 miles    
Events      
T = Trace of Precipitation, MM = Missing Value Source: NWS Daily Summary

Daily Weather History Graph

Daily Weather History Graph

Search for Another Location

Airport:

Trip Planner

Search our weather history database for the weather conditions in past years. The results will help you decide how hot, cold, wet, or windy it might be!

Date:

Astronomy

Jun. 15, 2013 Rise Set
Actual Time 6:14 AM EDT 8:44 PM EDT
Civil Twilight 5:45 AM EDT 9:13 PM EDT
Nautical Twilight 5:08 AM EDT 9:50 PM EDT
Astronomical Twilight 4:28 AM EDT 10:30 PM EDT
Moon 12:34 PM EDT (6/15) 12:31 AM EDT (6/15)
Length of Visible Light 15h 28m
Length of Day
14h 29m
Waxing Crescent, 39% of the Moon is Illuminated
Jun 15
Waxing Crescent
Jun 16
First Quarter
Jun 23
Full
Jun 30
Last Quarter
Jul 8
New

Hourly Weather History & Observations

Time (EDT) Temp. Heat Index Dew Point Humidity Pressure Visibility Wind Dir Wind Speed Gust Speed Precip Events Conditions
12:53 AM 66.9 °F - 55.0 °F 66% 30.03 in 10.0 mi Calm Calm - N/A   Clear
1:53 AM 66.9 °F - 54.0 °F 63% 30.04 in 10.0 mi Calm Calm - N/A   Clear
2:53 AM 64.9 °F - 55.9 °F 73% 30.04 in 10.0 mi Calm Calm - N/A   Clear
3:53 AM 63.0 °F - 57.0 °F 81% 30.03 in 10.0 mi Calm Calm - N/A   Clear
4:53 AM 61.0 °F - 57.0 °F 87% 30.03 in 10.0 mi Calm Calm - N/A   Clear
5:53 AM 61.0 °F - 55.9 °F 83% 30.06 in 10.0 mi Calm Calm - N/A   Clear
6:53 AM 60.1 °F - 57.0 °F 90% 30.09 in 10.0 mi Calm Calm - N/A   Clear
7:53 AM 68.0 °F - 57.9 °F 70% 30.10 in 10.0 mi NNE 3.5 mph - N/A   Clear
8:53 AM 72.0 °F - 57.0 °F 59% 30.12 in 10.0 mi NNE 3.5 mph - N/A   Clear
9:53 AM 75.9 °F - 57.9 °F 54% 30.13 in 10.0 mi Calm Calm - N/A   Clear
10:53 AM 78.1 °F - 57.9 °F 50% 30.12 in 10.0 mi Calm Calm - N/A   Clear
11:53 AM 79.0 °F - 57.9 °F 48% 30.12 in 10.0 mi Variable 4.6 mph - N/A   Clear
12:53 PM 80.1 °F 80.6 °F 57.9 °F 47% 30.10 in 10.0 mi Variable 5.8 mph - N/A   Scattered Clouds
1:53 PM 82.0 °F 82.1 °F 59.0 °F 45% 30.09 in 10.0 mi WSW 8.1 mph - N/A   Scattered Clouds
2:53 PM 82.9 °F 82.6 °F 57.9 °F 42% 30.08 in 10.0 mi SW 8.1 mph - N/A   Mostly Cloudy
3:53 PM 84.0 °F 84.0 °F 60.1 °F 44% 30.08 in 10.0 mi SW 10.4 mph - N/A   Scattered Clouds
4:53 PM 82.9 °F 83.2 °F 60.1 °F 46% 30.06 in 10.0 mi South 9.2 mph 17.3 mph N/A   Clear
5:53 PM 82.9 °F 82.8 °F 59.0 °F 44% 30.05 in 10.0 mi South 9.2 mph - N/A   Clear
6:53 PM 82.0 °F 82.1 °F 59.0 °F 45% 30.04 in 10.0 mi South 11.5 mph - N/A   Clear
7:53 PM 79.0 °F - 59.0 °F 50% 30.06 in 10.0 mi South 8.1 mph - N/A   Clear
8:53 PM 73.9 °F - 60.1 °F 62% 30.06 in 10.0 mi South 3.5 mph - N/A   Clear
9:53 PM 71.1 °F - 60.1 °F 68% 30.05 in 10.0 mi South 4.6 mph - N/A   Clear
10:53 PM 71.1 °F - 61.0 °F 70% 30.08 in 10.0 mi SSW 4.6 mph - N/A   Clear
11:53 PM 69.1 °F - 61.0 °F 75% 30.09 in 10.0 mi WSW 4.6 mph - N/A   Scattered Clouds